星链-32783 (STARLINK-32783)

导读

STARLINK-32783是美国SpaceX星链星座中的一颗低轨通信卫星,于2025年1月13日发射入轨。作为星链全球卫星互联网项目的组成部分,它运行在近地轨道,依托可展开太阳能板供电并具备自动避碰能力,旨在为全球尤其是偏远地区提供高速低延迟互联网服务,助力缩小数字鸿沟,同时也可为特定行业提供通信支持,延续了星链计划快速部署的节奏。

Basic Information
目录编号:
62606
目录名称:
STARLINK-32783
国际标识:
2025-008V
轨道中心:
EARTH
卫星名称:
星链-32783
卫星全名:
星链-32783 (STARLINK-32783)
卫星状态:
在轨 (已飞行517 天)
发射日期:
2025-01-13 UTC
国别 :
美国 (US)
星等 :
--
Orbit Information
数据来源 国际轨道数据 AOE轨道数据
星历时间 2026-06-13T20:54:30+0800
22小时前
查看轨道信息
2026-06-09T00:00:00+0800
5天前
查看轨道信息
半长轴 6861.12km 6861.185km
偏心率 0.0002695 0.000222
轨道倾角 43.005° 43.006°
近地点辐角 271.625° 275.845°
升交点赤经 96.575° 124.087°
平近点角 88.430° 264.632°
近地点 481.133km 481.524km
远地点 484.833km 484.572km
周期 94.265分钟 94.267分钟
每日圈数 15.276023 15.275805
Detailed Information
固有亮度:
5
最大亮度:
2.5
卫星平台:
Starlink V1.0
覆盖范围:
全球
运营商:
太空探索技术公司
运营商所在国:
美国
制造商(研发单位):
太空探索技术公司
制造商所在国:
美国
使用方式:
暂无
Satellite Introduction
Starlink 计划是 SpaceX 推出的全球卫星互联网项目,通过发射低轨道卫星,为全球尤其是偏远地区提供高速、低延迟的互联网服务。自 2019 年起,Starlink 已部署数千颗卫星,旨在缩小全球数字鸿沟,推动互联网普及。该项目还为军事、航空等行业提供通信支持,带来广泛经济效益。
2D Orbit Map
3D Orbit Map
Orbit Altitude Analysis Chart
Orbit Inclination Analysis Chart
Orbit Comprehensive Analysis Chart
View Comprehensive Chart